Location: Celina Division
(33.3022°N, 96.7580°W)
Time: 02:16:36
(UTC+00:00)

STARLINK-5229 - Pass Details

Date: 05 December 2022
Orbit: 539 x 540 km, 53.2° (Epoch: 01 February)

Event Time Altitude Azimuth Distance (km) Brightness Sun altitude
Rises 00:34:59 0° 231° (SW) 2,688 ? -15.5°
Reaches altitude 10° 00:37:14 10° 235° (SW) 1,800 ? -16.0°
Maximum altitude 00:41:16 61° 316° (NW) 619 ? -16.8°
Enters shadow 00:43:26 26° 29° (NNE) 1,095 ? -17.2°
